FW4339 Weather Reports


time (UTC)temp
C
wind
direction
speed
KPH
gust
KPH
rain 1hr
cm
rain 24hr
cm
rain mn
cm
humidity
%
barometer
mb
20260906093023 33 0.0 0.0 0.00 0.00 0.00 32 1015.6
20260906091518 33 0.0 0.0 0.00 0.00 0.00 32 1015.6
20260906084504 32 0.0 0.0 0.00 0.00 0.00 36 1015.5
20260906083001 31 0.0 0.0 0.00 0.00 0.00 33 1015.6
20260906081559 31 0.0 0.0 0.00 0.00 0.00 34 1015.7
20260906074554 30 0.0 0.0 0.00 0.00 0.00 46 1015.7
20260906073049 29 0.0 0.0 0.00 0.00 0.00 46 1015.6
20260906071546 28 0.0 0.0 0.00 0.00 0.00 47 1015.5
20260906064539 27 0.0 0.0 0.00 0.00 0.00 51 1015.3
20260906063036 26 0.0 0.0 0.00 0.00 0.00 53 1015.1
20260906061530 26 0.0 0.0 0.00 0.00 0.00 54 1015.1
20260906054520 24 0.0 0.0 0.00 0.00 0.00 54 1014.9
20260906053016 24 0.0 0.0 0.00 0.00 0.00 52 1014.9
20260906051512 23 0.0 0.0 0.00 0.00 0.00 52 1014.9
20260906044510 23 0.0 0.0 0.00 0.00 0.00 52 1014.6
20260906043013 23 0.0 0.0 0.00 0.00 0.00 52 1014.6
20260906041507 23 0.0 0.0 0.00 0.00 0.00 52 1014.5
20260906034505 23 0.0 0.0 0.00 0.00 0.00 49 1014.2
20260906033012 23 0.0 0.0 0.00 0.00 0.00 50 1014.1
20260906031503 23 0.0 0.0 0.00 0.00 0.00 50 1014.2
20260906024512 23 0.0 0.0 0.00 0.00 0.00 44 1013.8
20260906023013 23 0.0 0.0 0.00 0.00 0.00 44 1013.7
20260906021512 23 0.0 0.0 0.00 0.00 0.00 47 1013.6
20260906014503 23 0.0 0.0 0.00 0.00 0.00 47 1013.8
20260906013001 23 0.0 0.0 0.00 0.00 0.00 46 1013.9
20260906011608 23 0.0 0.0 0.00 0.00 0.00 44 1013.9
20260906010158 23 0.0 0.0 0.00 0.00 0.00 43 1013.7
20260906004604 24 0.0 0.0 0.00 0.00 0.00 44 1013.8
20260906003102 24 0.0 0.0 0.00 0.00 0.00 40 1013.9
20260906001555 24 0.0 0.0 0.00 0.00 0.00 38 1013.9
20260906000154 24 0.0 0.0 0.00 0.00 0.00 47 1014.1
20260905234553 24 0.0 0.0 0.00 0.00 0.00 47 1014.2
20260905233053 24 0.0 0.0 0.00 0.00 0.00 42 1014.1
20260905231549 24 0.0 0.0 0.00 0.00 0.00 45 1014.3
20260905230149 25 0.0 0.0 0.00 0.00 0.00 41 1014.3
20260905224553 25 0.0 0.0 0.00 0.00 0.00 44 1014.3
20260905223049 25 0.0 0.0 0.00 0.00 0.00 43 1014.2
20260905221546 25 0.0 0.0 0.00 0.00 0.00 40 1014.4
20260905220146 25 0.0 0.0 0.00 0.00 0.00 43 1014.4
20260905214540 25 0.0 0.0 0.00 0.00 0.00 45 1014.5
20260905213040 25 0.0 0.0 0.00 0.00 0.00 39 1014.7
20260905211544 26 0.0 0.0 0.00 0.00 0.00 38 1014.7
20260905210135 26 0.0 0.0 0.00 0.00 0.00 45 1014.7
20260905204553 26 0.0 0.0 0.00 0.00 0.00 35 1014.7
20260905203049 26 0.0 0.0 0.00 0.00 0.00 31 1014.7
20260905201548 26 0.0 0.0 0.00 0.00 0.00 32 1014.6
20260905200149 27 0.0 0.0 0.00 0.00 0.00 32 1014.6
20260905194559 27 0.0 0.0 0.00 0.00 0.00 31 1014.7
20260905193049 27 0.0 0.0 0.00 0.00 0.00 31 1014.7
20260905191556 27 0.0 0.0 0.00 0.00 0.00 31 1014.8
20260905190149 27 0.0 0.0 0.00 0.00 0.00 30 1014.7
20260905184606 27 0.0 0.0 0.00 0.00 0.00 30 1014.6
20260905183048 27 0.0 0.0 0.00 0.00 0.00 30 1014.6
20260905181555 27 0.0 0.0 0.00 0.00 0.00 31 1014.6
20260905180143 28 0.0 0.0 0.00 0.00 0.00 31 1014.4
20260905174532 28 0.0 0.0 0.00 0.00 0.00 30 1014.4
20260905173034 28 0.0 0.0 0.00 0.00 0.00 30 1014.3
20260905171532 28 0.0 0.0 0.00 0.00 0.00 30 1014.1
20260905170133 28 0.0 0.0 0.00 0.00 0.00 29 1014.1
20260905164529 28 0.0 0.0 0.00 0.00 0.00 29 1014.0
20260905163028 30 0.0 0.0 0.00 0.00 0.00 28 1014.0
20260905161527 30 0.0 0.0 0.00 0.00 0.00 27 1014.2
20260905160128 31 0.0 0.0 0.00 0.00 0.00 25 1014.3
20260905154533 32 0.0 0.0 0.00 0.00 0.00 25 1014.3
20260905153026 32 0.0 0.0 0.00 0.00 0.00 24 1014.3
20260905151527 33 0.0 0.0 0.00 0.00 0.00 23 1014.3
20260905150126 33 0.0 0.0 0.00 0.00 0.00 25 1014.2
20260905144534 33 0.0 0.0 0.00 0.00 0.00 25 1014.2
20260905143030 33 0.0 0.0 0.00 0.00 0.00 25 1014.2
20260905141530 35 0.0 0.0 0.00 0.00 0.00 26 1014.2
20260905140130 35 0.0 0.0 0.00 0.00 0.00 25 1014.2
20260905134520 35 0.0 0.0 0.00 0.00 0.00 24 1014.3
20260905133035 35 0.0 0.0 0.00 0.00 0.00 23 1014.4
20260905131519 35 0.0 0.0 0.00 0.00 0.00 23 1014.5
20260905130119 35 0.0 0.0 0.00 0.00 0.00 27 1014.7
20260905124528 35 0.0 0.0 0.00 0.00 0.00 25 1014.7
20260905123023 35 0.0 0.0 0.00 0.00 0.00 26 1014.8
20260905121524 35 0.0 0.0 0.00 0.00 0.00 26 1014.8
20260905120120 35 0.0 0.0 0.00 0.00 0.00 25 1014.9
20260905114516 35 0.0 0.0 0.00 0.00 0.00 26 1014.9
20260905113016 34 0.0 0.0 0.00 0.00 0.00 27 1015.0
20260905111515 34 0.0 0.0 0.00 0.00 0.00 26 1014.8
20260905110113 34 0.0 0.0 0.00 0.00 0.00 26 1014.9
20260905104509 34 0.0 0.0 0.00 0.00 0.00 27 1015.1
20260905103010 33 0.0 0.0 0.00 0.00 0.00 28 1015.0
20260905101506 33 0.0 0.0 0.00 0.00 0.00 29 1015.1
20260905100110 33 0.0 0.0 0.00 0.00 0.00 29 1015.2
20260905094505 33 0.0 0.0 0.00 0.00 0.00 30 1015.2